Voltar ao catálogo

DELTA 1 DEB

AtivoPO
NORAD 7838·DEBRIS·🇺🇸 United States

Lançado Jul 23, 1972 de Vandenberg Space Force Base

Loading…

Próximas Passagens (próximas 24 horas)

TLE

AtualizadoSource: Space-Track

Época: Sep 14, 2026, 04:28 UTC

1 07838U 72058J   26257.18650890  .00001355  00000-0  60661-3 0  9993
2 07838  98.1236 344.8941 0300553 236.0064 121.2218 14.02754122582502

Acompanhe DELTA 1 DEB em tempo real com AllMySat

Download on the App Store